GFSNE_prec_radar_171.txt.gz
Reflectivity
-20 -20 -20 -20 -20 -20 -20 -20 -20 -20 -20 -20 -20 -20 -20 -20 -20 -20 -20 -20 -20 -20 -20 -20 -20 -20 -20 -20 -20 -20 -20 -20 -20 -20 -20 -20 -20 -20
-20 -20 -20 -20 -20 -20 -20 -20 -20 -20 -20 -20 -20 -20 -20 -20 -20 -20 -20 -20 -20 -20 -20 -20 -20 -20 -20 -20 -20 -20 -20 -20 1 12 17 17 16 16
-20 -20 -20 -20 -20 -20 -20 -20 -20 -20 -20 -20 -20 -20 -20 -20 -20 -20 -20 -20 -20 -20 -20 -20 -20 -20 -20 -20 -20 -20 -20 -9 -2 -14 7 14 20 16
-20 -20 -20 -20 -20 -20 -20 -20 -20 -20 -20 -20 -20 -20 -20 -20 -20 -20 -20 -20 -20 -20 -20 -20 -20 -20 -20 -20 -20 -20 -20 -16 -20 -20 -20 10 9 11
-20 -20 -20 -20 -20 -20 -20 -20 -20 -20 -20 -20 -20 -19 -8 -19 -20 -16 -19 -20 -20 -20 -20 -20 -20 -20 -20 -20 -20 -12 -1 6 6 -5 15 11 15 9
-20 -20 -20 -20 -20 -20 -20 -20 -20 -20 -20 -20 -19 -17 -20 -20 -20 -1 -11 -20 -13 -20 -20 -20 -20 -20 -20 -20 -20 -20 -20 -20 -20 -10 -0 -9 -7 -2
-20 -20 -20 -20 -20 -20 -20 -20 -20 -20 -15 -15 1 3 -15 -17 -5 -4 5 -17 -20 -20 -20 -20 -20 -20 -20 -20 -20 -20 -20 -7 4 10 11 9 5 6
-20 -20 -20 -20 -20 -20 -20 -20 -3 -20 -20 -4 2 1 -20 4 -0 5 11 6 3 12 6 -20 -15 -20 -6 -20 -20 -20 -20 2 5 12 13 9 13 12
-20 -20 -20 -20 -20 -20 -20 -20 -20 -20 -20 -20 3 -3 3 -9 6 5 16 17 -0 -20 -5 3 -9 0 -20 -20 -20 -20 -20 -20 -1 4 4 4 -20 -14
-20 -20 -20 -20 -20 -20 -20 -20 -20 -20 -20 -5 -2 5 10 13 15 11 11 7 -20 -20 -20 4 -20 -20 -20 -20 -20 -20 -20 -20 -3 5 11 17 11 -5
-20 -20 -20 -20 -20 -20 -20 -2 -10 -14 -20 -20 -14 -4 -4 -18 -19 8 8 12 2 -2 -20 2 -20 -2 -20 -20 -20 -20 -20 -20 -20 -20 -20 -20 -5 -3
-20 -20 -20 -20 -20 -6 11 -16 -20 -20 -20 -20 -20 -20 -20 -20 -20 -20 6 10 11 7 -16 8 1 8 0 -20 -20 -20 -20 -20 -20 -20 -20 -2 2 -10
-20 -20 -20 -20 -11 12 1 -20 -20 -18 -17 -20 -20 -14 -14 -20 -20 -20 -20 5 -1 -13 -20 11 5 6 11 8 -13 -20 -20 -20 -20 -20 -20 -15 1 10
-20 -20 -20 4 4 -4 -20 -20 -20 -15 -20 -11 -8 -6 -7 -8 -15 -20 -20 -20 -15 6 -20 -13 8 10 4 6 5 -20 -20 -20 -17 -20 -20 -17 -20 -14
-20 -16 6 -2 -19 -20 -20 -20 -20 -20 -20 -7 -0 2 4 4 -17 5 -12 1 2 -20 -20 -20 8 4 13 9 7 -8 -20 -20 -12 -2 3 -8 -3 -14
-20 -20 -20 -20 -20 -20 -20 -20 -20 -19 3 7 6 6 5 5 6 7 7 11 8 -1 -20 -20 -10 13 8 3 3 -2 -20 3 -16 0 7 -20 -20 -6
-20 -20 -20 -20 -20 -20 -20 -20 -20 -11 6 4 9 11 5 2 1 -8 6 7 6 -6 -12 -20 -20 -20 -19 -18 -1 -16 -20 -20 -12 4 -20 -20 -17 -20
-20 -20 -20 -20 -20 -10 -5 -4 -0 -1 0 8 -13 -10 3 2 1 -1 -4 2 -20 -14 5 -20 -8 -20 -20 -20 -20 -20 -8 -20 -20 -9 -7 -20 -20 -20
-20 -20 -20 -20 -1 2 3 5 -3 -1 6 -20 -20 2 1 -20 -2 -12 -19 1 -2 -11 -20 -20 0 -0 -17 -20 -20 -20 6 3 -20 -20 -20 -0 -1 -20
-20 -20 -20 -9 1 6 4 -20 -1 -0 -20 -20 -14 -20 -20 -5 -10 -20 -20 -20 -15 6 3 -20 -20 -17 -4 3 5 -20 -20 -19 -15 -20 -20 -20 -20 -20
-20 -20 -20 -12 -0 9 -15 -20 -19 -17 1 -20 -20 -20 -20 -20 -20 -20 -20 -10 3 -20 -18 -20 -20 -19 -7 -20 -20 -20 -20 -20 -20 1 -4 -20 -20 -20
-7 4 -17 -1 7 -12 1 -20 -20 -20 -20 -20 -20 -20 -20 -20 -20 -20 -20 -20 -5 1 -2 -20 -20 -20 -20 -20 -20 -20 -20 -20 -20 -20 -20 6 1 -4
-20 -15 4 0 6 -15 -20 -20 -20 -20 -20 -20 -20 -20 -20 -20 -20 -20 3 4 1 -1 -0 -20 -20 -20 -20 -20 0 -20 -20 -20 -20 -20 -20 -20 -20 -20

GFSNE_prec_radar_174.txt.gz
Reflectivity
-20 -20 -20 -20 -20 -20 -20 -20 -20 -20 -20 -20 -20 -20 -20 -20 -20 -20 -20 -20 -20 -20 -20 -20 -20 -20 -20 -20 -20 -20 -20 -20 -20 -20 -20 -17 -2 13
-20 -20 -20 -20 -20 -20 -20 -20 -20 -20 -20 -20 -20 -20 -20 -20 -20 -20 -20 -20 -20 -20 -20 -20 -20 -20 -20 -20 -20 -20 -20 -20 -20 -20 -13 -20 -3 14
-20 -20 -20 -20 -20 -20 -20 -20 -20 -20 -20 -20 -20 -20 -20 -20 -20 -20 -20 -20 -20 -20 -20 -20 -20 -20 -20 -20 -20 -12 -20 -20 -3 -8 -20 -5 -4 -13
-20 -20 -20 -20 -20 -20 -20 -20 -20 -20 -20 -20 -20 -20 -20 -20 -20 -20 -20 -20 -20 -20 -20 -20 -20 -20 -20 -20 -20 -8 -20 -17 -14 12 11 9 6 -20
-20 -20 -20 -20 -20 -20 -20 -20 -20 -20 -20 -20 -20 -20 -20 -20 -20 -20 -20 -20 -20 -20 -20 -20 -20 -20 -20 -20 -20 -17 -15 -16 -15 -20 -15 -4 5 14
-20 -20 -20 -20 -20 -20 -20 -20 -20 -20 -20 -20 -20 -20 -20 -20 -20 -20 -20 -20 -20 -20 -20 -9 -20 -20 -20 -20 -20 -6 8 5 -20 -20 -20 -20 -14 -7
-20 -20 -20 -20 -20 -20 -20 -20 -20 -20 -20 -20 -20 -20 -20 -20 -20 -20 -8 -6 -20 4 7 -20 -20 -20 -20 -18 -4 4 8 -20 -17 -15 -13 7 11 12
-20 -20 -20 -20 -20 -20 -20 -20 -20 -20 -20 -20 -20 -20 -20 -20 -18 1 11 8 9 -11 3 -20 -20 -20 -20 -20 -20 -20 -20 -3 5 6 9 -13 9 12
-20 -20 -20 -20 -20 -20 -20 -20 -20 -20 -13 -3 -20 -20 -20 -20 2 13 13 9 4 -10 5 0 -20 -17 -20 -20 -20 -20 -20 -20 -6 3 9 9 11 2
-20 -20 -20 -20 -20 -20 -20 -20 -20 -20 -20 -20 -20 -20 -15 -17 -15 -5 7 9 3 -7 -3 1 -17 -13 -20 -20 -20 -20 -20 -20 -7 3 5 1 -5 -7
-20 -20 -20 -20 -20 -17 -19 -20 -20 -20 -20 -20 -11 1 -20 -20 -4 5 8 12 -13 -11 -4 5 -2 -4 -5 -20 -20 -20 -20 -20 -20 -2 1 1 1 11
-20 -20 -20 -20 -20 -1 2 0 -6 -20 -20 -18 -20 -20 -20 -20 -20 2 8 13 13 6 -20 6 3 10 8 -19 -20 -20 -20 -20 -20 -6 2 2 11 -4
-20 -20 -20 -20 -20 2 -14 -20 -20 -13 -14 -20 -20 -20 -20 -20 -19 -1 -8 11 15 15 -11 10 12 11 12 11 -0 -20 -9 -14 1 -16 3 -14 4 9
-20 -20 -20 -3 -12 -20 -20 -20 -20 -20 -20 -20 -20 -20 -4 -5 1 1 2 5 9 10 5 6 14 16 6 10 10 -20 -20 -2 -16 -11 9 -0 -8 -1
-20 -20 -6 -20 -20 -20 -20 -20 -20 -20 -20 -8 2 -10 4 4 -2 3 6 8 5 -7 -17 10 13 14 11 14 11 4 2 -19 -3 11 11 9 6 -20
-20 -20 -20 -20 -20 -20 -20 -20 -20 -19 -18 5 5 3 5 3 3 4 7 7 9 -3 -20 -20 -18 5 7 9 9 3 1 0 -16 -20 5 -20 -18 5
-7 -20 -20 -20 -20 -20 -20 -20 -20 -20 -0 -1 7 4 -3 2 2 1 5 8 7 5 2 -20 -10 6 7 3 -4 -2 6 3 -20 -20 -20 -13 -1 9
-20 -20 -20 -20 -20 -20 -20 -20 -2 -7 -7 -1 3 3 5 5 4 5 4 2 4 2 8 4 2 -0 -20 -20 -13 10 7 10 12 -14 -20 -1 -17 6
-20 -20 -20 -20 -20 -20 -5 4 -1 -17 -4 3 1 7 7 2 -0 -3 -1 6 4 5 6 9 10 10 8 5 -20 -20 11 6 9 3 -20 -20 -20 -20
-20 -20 -20 -20 -20 -15 3 4 -3 -3 -8 1 5 1 3 5 3 3 -1 4 8 9 6 2 6 11 12 10 7 -20 -20 -17 11 12 12 -15 -20 -20
-20 -20 -20 -11 -0 4 4 5 3 -11 4 5 -5 3 2 3 -2 -2 0 1 3 7 7 5 5 6 9 5 1 7 -6 -20 -20 4 5 10 7 -8
-20 -20 -9 -2 3 7 8 4 2 -4 -9 -1 -3 1 0 -1 0 -4 3 8 6 6 6 5 2 7 5 8 6 4 5 -2 -20 -20 -20 -15 11 9
-9 -3 -8 5 6 9 8 7 4 -7 -8 -20 -20 -2 3 4 -2 2 7 5 3 3 3 1 2 3 -4 -2 -3 -2 -19 -20 -20 -20 -20 -20 -20 -20

GFSNE_prec_radar_177.txt.gz
Reflectivity
-20 -15 -6 -20 -20 -20 -20 -20 -20 -20 -20 -20 -20 -20 -20 -20 -20 -20 -20 -20 -20 -20 -20 -20 -20 -20 -20 -20 -20 -20 -20 -20 -20 -1 -17 -20 -20 -20
-20 -10 -20 -20 -20 -20 -20 -20 -20 -20 -20 -20 -20 -20 -20 -20 -20 -20 -20 -20 -20 -20 -20 -20 -20 -20 -20 -2 -20 -20 -20 -11 -16 -20 -20 -9 -4 -19
-6 -2 -16 -20 -20 -20 -20 -20 -20 -20 -20 -20 -20 -20 -20 -20 -20 -20 -20 -20 -20 -20 -20 -20 -20 -20 -20 -20 -20 -16 -20 -14 -3 -7 -20 -19 15 16
-20 -20 -20 -20 -20 -20 -20 -20 -20 -20 -20 -20 -20 -20 -20 -20 -20 -20 -20 -20 -20 -20 -20 -20 -20 -20 -20 -19 -4 -18 -18 -20 -20 2 -19 -8 -12 12
-20 -20 -20 -20 -20 -20 -20 -20 -20 -20 -20 -20 -20 -20 -20 -20 -20 -20 -20 -20 -20 -20 -20 -20 -20 -20 -20 -18 1 -1 8 -20 -8 9 -15 -20 -20 -20
-20 -20 -20 -20 -20 -20 -20 -20 -20 -20 -20 -20 -20 -20 -20 -20 -20 -20 -20 -20 -20 -20 -20 -20 -20 -20 -20 -20 -17 -11 -20 -5 -3 -0 -20 -20 -7 4
-20 -20 -20 -20 -20 -20 -20 -20 -20 -20 -20 -20 -20 -20 -20 -20 -20 -20 -20 -20 -20 -20 -20 -20 -20 -20 -20 -20 -20 -9 -2 -20 -11 -20 7 9 10 11
-20 -20 -20 -20 -20 -20 -20 -20 -20 -20 -20 -20 -20 -20 -20 -20 -20 -20 -8 -20 3 -20 3 -20 -20 -20 -20 -20 -20 -20 -20 2 5 12 6 5 10 12
-20 -20 -20 -20 -20 -20 -20 -20 -20 -20 -20 -19 -20 -20 -20 -20 -20 -20 -10 6 -9 -18 5 -13 -20 -20 -20 -18 -20 -20 -2 -7 -13 2 -3 3 9 11
-20 -20 -20 -20 -20 -20 -20 -20 -20 -20 -20 -20 -20 -20 -20 1 -3 -2 4 1 -20 -20 -4 -14 -20 -20 -20 -20 -20 -12 5 -20 -14 -20 -2 3 6 8
-20 -20 -20 -20 -20 -20 -20 -20 -20 -20 -20 -20 -20 -20 -11 -20 -14 -5 4 9 -20 -20 -20 6 -20 -20 -20 -20 -20 -20 -20 -20 -8 2 -4 8 8 9
-20 -20 -20 -20 -20 -17 -15 -20 -20 -20 -20 -19 -20 -20 -20 -20 -7 -19 -9 3 -8 -19 -20 12 7 8 5 -20 -20 -20 -20 -20 -6 -0 9 10 11 -2
-20 -20 -20 -20 -20 -6 -16 -20 -20 -16 -17 -20 -20 -20 -20 -20 -20 -3 -5 5 -13 -17 -20 6 -8 -13 8 7 -20 -20 -20 -20 -20 -20 -20 -20 11 9
-20 -20 -20 -20 -20 -20 -20 -20 -20 -20 -20 -20 -20 -20 -20 -20 -20 -20 -20 -20 5 8 -11 -4 11 11 8 3 -14 -20 -20 -20 -20 -20 -15 3 -10 6
-20 -20 -20 -20 -20 -20 -20 -20 -20 -20 -20 -5 -7 -20 -20 -9 -20 -20 -5 -18 -20 -20 -20 8 8 -19 -16 -12 -1 -20 -4 -20 -20 7 -20 -5 -19 -20
-20 -20 -20 -20 -20 -20 -20 -20 -20 -20 -8 -6 -1 -19 -6 -18 -18 -2 -2 -20 1 -20 -20 -20 -20 -20 3 -7 4 -5 -20 -18 -19 7 -20 -20 -20 -20
-20 -20 -20 -20 -20 -20 -20 -20 -20 -20 -20 -5 -13 -7 -3 -12 -11 -0 -20 -1 -4 -3 -13 -20 -20 -20 -0 -5 1 -20 -20 -7 -20 -0 11 -20 -20 -20
-20 -20 -20 -20 -20 -20 -20 -20 -20 -10 -12 -5 -12 4 -9 -11 -1 -12 -0 -20 1 -8 -18 -20 -1 -9 -20 -20 -18 -1 6 3 -8 -18 5 -4 -20 -20
-20 -20 -20 -20 -20 -20 -20 -20 -18 -15 -4 1 -19 -20 6 -19 1 -2 -0 -20 -19 -20 -20 5 2 3 1 -20 -20 -20 -20 -20 -20 -20 -13 11 8 -20
-20 -20 -20 -20 -20 -11 -16 -3 -14 -20 -0 -18 -13 3 -20 2 -16 -0 -15 -18 -16 -7 -8 -19 2 6 6 5 -10 -20 -20 3 9 -11 -20 -20 -20 -20
-20 -20 -20 -20 -8 -11 -16 -3 6 -20 -14 -16 -8 -1 -6 3 -20 -10 -9 4 2 -9 -9 -1 -8 2 -16 -1 -20 -20 -20 -20 6 2 2 2 -15 -20
-20 -20 -20 -20 2 -16 -20 2 1 -20 -2 -20 -19 1 -20 -10 3 -2 -16 -19 -10 -10 -4 -8 -20 -20 -20 -16 -20 -20 -20 -20 -20 -20 -20 -16 2 -4
-20 -20 -4 -20 -20 7 -20 8 3 -20 -4 -20 -18 -4 -19 -19 -9 -2 -20 -19 -20 -20 -20 -20 -20 -20 -20 -20 -6 -20 -20 -20 -20 -20 -20 -20 -20 -20

GFSNE_prec_radar_180.txt.gz
Reflectivity
-20 -20 -20 -20 -20 -20 -20 -20 -20 -20 -20 -20 -20 -20 -20 -20 -20 -20 -20 -20 -20 -20 -20 -20 -20 -20 -20 -18 -20 -14 -20 -6 -19 -20 -20 -1 -4 -8
-19 -2 -13 -20 -20 -20 -20 -20 -20 -20 -20 -20 -20 -20 -20 -20 -20 -20 -20 -20 -20 -20 -20 -20 -20 -20 -20 -20 -10 -11 -20 -18 6 8 -4 1 10 13
-20 -20 -14 -20 -20 -20 -20 -20 -20 -20 -20 -20 -20 -20 -20 -20 -20 -20 -20 -20 -20 -20 -20 -20 -20 -20 -20 -19 -2 -20 5 -20 3 6 -16 -10 7 9
-20 -19 -20 -20 -20 -20 -20 -20 -20 -20 -20 -20 -20 -20 -20 -20 -20 -20 -20 -20 -20 -20 -20 -20 -20 -20 -20 -20 -20 -20 -20 -15 -20 -19 -19 -20 4 10
-20 -20 -14 -20 -20 -20 -20 -20 -20 -20 -20 -20 -20 -20 -20 -20 -20 -20 -20 -20 -20 -20 -20 -20 -20 -19 -20 -0 -20 -19 -20 -20 6 -13 -20 -4 -4 -20
-20 -20 -20 -20 -20 -20 -20 -20 -20 -20 -20 -20 -20 -20 -20 -20 -20 -20 -20 -20 -20 -20 -20 -20 -20 -20 -20 -19 -20 -20 -20 -20 -6 10 9 10 3 -1
-20 -20 -20 -20 -20 -20 -20 -20 -20 -20 -20 -20 -20 -20 -20 -20 -20 -20 -20 -20 -20 -20 -20 -20 -20 -20 -20 -20 -20 -20 -2 6 -20 9 -12 12 13 14
-20 -20 -20 -20 -20 -20 -20 -20 -20 -20 -20 -20 -20 -20 -20 -20 -20 -20 -20 -20 -20 -20 -20 -20 -20 -20 -20 -20 -20 -20 -20 8 9 9 8 -20 -4 11
-20 -20 -20 -20 -20 -20 -20 -20 -20 -20 -20 -20 -20 -20 -20 -20 -17 -5 -20 -20 -20 -20 -2 -20 -20 -20 -20 -20 -20 -20 -20 9 -2 -15 -20 12 14 13
-20 -20 -20 -20 -20 -20 -20 -20 -20 -20 -20 -20 -20 -20 -20 -10 -20 -20 -20 -20 -20 -20 -15 -20 -20 -20 -20 -20 -20 -20 7 -20 5 7 10 12 12 12
-20 -20 -20 -20 -20 -20 -20 -20 -20 -20 -20 -20 -20 -20 -20 -20 -20 -20 -20 -19 -20 -20 -20 -20 -20 -20 -20 -20 -20 -20 -20 -20 -20 6 -20 6 7 6
-20 -20 -20 -20 -20 -20 -20 -20 -20 -20 -20 -20 -20 -20 -20 -20 -20 -10 -6 5 -20 -19 -20 -19 -18 -12 -18 -20 -20 -20 -20 -20 -20 -20 4 -1 9 8
-20 -20 -20 -20 -20 -20 -20 -20 -20 -17 -20 -20 -20 -20 -20 -20 -20 -14 -5 3 6 -5 -20 6 -0 -5 4 -10 -20 -20 -20 -20 -20 -20 -20 -14 2 4
-20 -20 -20 -20 -20 -20 -20 -20 -20 -20 -20 -20 -20 -20 -3 -20 -20 -20 -20 -20 -10 -15 -20 -20 6 11 -1 -20 -13 -20 -20 -20 -20 -20 -20 6 -7 -12
-20 -20 -20 -20 -20 -20 -20 -20 -20 -20 -20 -7 -20 -19 -20 -20 -20 -20 -20 -20 -20 -20 -20 -19 -19 -20 -20 -15 3 -20 -2 -20 -20 -20 -20 0 -6 -20
-20 -20 -20 -20 -20 -20 -20 -20 -20 -20 -20 -20 -20 -20 -20 -20 -20 -20 -16 -9 -19 -20 -20 -20 -20 -20 -20 -20 -16 -18 -20 -11 -20 -20 -1 -20 -20 -20
-20 -20 -20 -20 -20 -20 -20 -20 -20 -20 -9 -20 -11 -14 -12 -19 -20 -11 -2 -20 -15 -20 -20 -20 -20 -20 -20 -20 -20 -20 -11 -20 -2 -11 -20 -20 -20 -20
-20 -20 -20 -20 -20 -20 -20 -20 -20 -20 -3 -20 -5 -2 -15 -20 -3 -7 -6 -2 -20 -20 -20 -20 -15 -20 -20 -20 -20 -20 -20 -20 -20 -20 -20 -20 -17 -20
-20 -20 -20 -20 -20 -20 -20 -20 -20 -20 -7 -19 -20 -20 -20 5 -6 -20 -1 -20 -20 -20 -20 -20 -20 3 -18 -20 -20 -19 -20 -20 -20 -20 -19 -19 -20 -20
-20 -20 -20 -20 -20 -20 -18 -17 -20 -20 -10 -20 -20 -8 -6 -2 -15 -2 -20 -3 -20 -18 -20 -20 -20 -20 -19 -20 -20 -20 -20 -20 -20 -20 -12 -20 -20 -20
-20 -20 -20 -20 -20 -20 -7 -2 -11 -20 -5 -14 -20 -20 -9 -9 -11 -20 -17 5 5 -20 -20 -20 -20 -20 -20 -20 -20 -20 -20 -20 -20 -20 -20 -20 -20 -20
-20 -20 -20 -20 -20 -20 -9 -4 -18 -20 -12 -20 -20 -20 -14 -10 -20 -13 -15 -5 -20 -20 -20 -20 -20 -20 -20 -20 -20 -20 -20 -20 -20 -20 -20 -20 -20 -14
-20 -20 -20 -20 -1 5 3 -20 -20 -6 -20 -20 -20 -20 -20 -20 -20 -20 -20 -20 -20 -20 -20 -20 -20 -20 -20 -20 -20 -20 -20 -20 -20 -20 -20 -20 -20 -20

GFSNE_prec_radar_186.txt.gz
Reflectivity
-20 -20 -19 -20 -20 -20 -20 -20 -20 -20 -20 -20 -20 -20 -20 -20 -20 -20 -20 -20 -20 -20 -20 -20 -20 -20 -5 -19 -2 -9 6 11 -0 2 -20 -14 -2 -19
-20 -20 -20 -20 -20 -20 -10 -18 -20 -20 -20 -20 -20 -20 -20 -20 -20 -20 -20 -20 -20 -20 -20 -20 -20 -20 -20 -11 -9 9 3 3 9 8 -20 -18 -13 -3
-19 -20 -20 -20 -20 -19 4 -15 -20 -20 -20 -20 -20 -20 -20 -20 -20 -20 -20 -20 -20 -20 -20 -20 -20 -20 -20 -7 -15 -20 -20 -4 4 -9 -20 5 -6 2
-5 -10 -20 -20 -20 6 4 -20 -20 -20 -20 -20 -20 -20 -20 -20 -20 -20 -20 -20 -20 -20 -20 -20 -20 -20 -20 -20 -20 -20 -20 -20 -20 -20 5 10 10 9
-20 -20 -20 -20 -20 -20 -20 -20 -20 -20 -20 -20 -20 -20 -20 -20 -20 -20 -20 -20 -20 -20 -20 -20 -20 -20 -20 -20 -20 -20 -20 -20 2 -13 -20 -1 -17 13
-20 -20 -14 -10 -4 -11 -20 -20 -20 -20 -20 -20 -20 -20 -20 -20 -20 -20 -20 -20 -20 -20 -20 -20 -20 -20 -20 -20 -20 -20 -20 -20 -20 3 15 4 -6 12
-20 3 9 -15 -20 -20 -20 -20 -20 -20 -20 -20 -20 -20 -20 -20 -20 -20 -20 -20 -20 -20 -20 -20 -20 -20 -20 -20 -20 -20 -20 -20 -20 14 -20 -20 -20 -20
10 -20 -20 -20 -20 -20 -20 -20 -20 -20 -20 -20 -20 -20 -20 -20 -20 -20 -20 -20 -20 -20 -20 -20 -20 -20 -20 -20 -20 -20 -7 -20 -9 16 4 -20 -20 13
-20 -20 -20 -20 -20 -20 -20 -20 -20 -20 -20 -20 -20 -20 -20 -20 -20 -20 -20 -20 -20 -20 -20 -20 -20 -20 -20 -20 -20 -5 -2 -9 -20 -20 -20 -9 6 -10
-20 -20 -20 -20 -20 -20 -20 -20 -20 -20 -20 -20 -20 -20 -20 -20 -20 -20 -20 -20 -20 -20 -20 -20 -20 -20 -20 -20 -20 -20 -9 -20 -20 -4 -10 5 2 3
-20 -20 -20 -20 -20 -20 -20 -20 -20 -20 -20 -20 -20 -20 -20 -20 -20 -20 -20 -20 -20 -20 -20 -19 -20 -20 -20 -20 -20 -20 -20 -20 -20 -20 -2 3 11 6
-20 -20 -20 -20 -20 -20 -20 -20 -20 -20 -20 -20 -20 -20 -20 -20 -20 -20 -20 -20 -20 -20 -20 -19 -20 -20 -20 -20 -20 -20 -20 -20 -20 -20 -4 -3 5 -1
-20 -20 -20 -20 -20 -20 -20 -20 -20 -20 -20 -20 -20 -20 -20 -20 -20 -20 -20 -20 -20 -20 -20 3 -20 -20 2 -13 -20 -20 -20 -20 -20 -20 -20 -20 -20 -2
-20 -20 -20 -20 -20 -20 -20 -20 -20 -20 -20 -20 -20 -20 -20 -20 -20 -20 -20 -20 -20 -17 -20 -20 -20 -20 -19 -20 -20 -20 -20 -20 -20 -20 -20 -20 -20 -20
-20 -20 -20 -20 -20 -20 -20 -20 -20 -20 -20 -20 -20 -20 -20 -20 -20 -20 -20 -20 -20 -20 -20 -20 -20 -20 -20 -20 -20 -20 -1 -20 -20 -20 -20 -20 -20 -20
-20 -20 -20 -20 -20 -20 -20 -20 -20 -20 -20 -20 -20 -20 -20 -20 -20 -20 -20 -19 -6 -20 -20 -20 -20 -20 -20 -20 -4 -20 -20 -20 -20 -20 -20 -20 -20 -20
-20 -20 -20 -20 -20 -20 -20 -20 -20 -20 -20 -20 -20 -20 -8 -19 -20 -20 -20 -8 -20 -20 -20 -20 -20 -20 -20 -20 -20 -20 -20 -20 -20 -20 -20 -20 -20 -20
-20 -20 -20 -20 -20 -20 -20 -20 -20 -20 -20 -20 -20 -20 -14 -20 -18 -20 -20 -20 -20 -20 -20 -20 -20 -20 -20 -20 -20 -20 -20 -20 -20 -20 -20 -20 -20 -20
-20 -20 -20 -20 -20 -20 -20 -20 -20 -20 -20 -20 -20 -20 -20 -20 -19 -20 -20 -20 -20 -20 -20 -20 -20 -20 -20 -20 -20 -20 -20 -20 -20 -20 -20 -20 -20 -20
-20 -20 -20 -20 -20 -20 -20 -20 -20 -20 -20 -20 -20 -20 -20 -20 -20 -20 -20 -20 -20 -20 -20 -20 -20 -20 -20 -20 -13 -20 -20 -20 -20 -20 -20 -20 -20 -20
-20 -20 -20 -20 -20 -20 -20 -20 -20 -20 -14 -20 -20 -20 -20 -20 -20 -20 -20 -9 1 -20 -20 -20 -20 -20 -15 -20 -16 -20 -20 -20 -20 -20 -20 -20 -20 -20
-20 -20 -20 -20 -20 -20 -20 -20 -20 -20 -20 -20 -20 -20 -20 -20 -20 -20 -20 -20 -20 -20 -20 -20 -20 -20 -20 -20 -20 -20 -20 -20 -20 -20 -20 -20 -20 -18
-20 -20 -20 -20 -20 -20 -20 -20 -20 -20 -20 -20 -20 -20 -20 -20 -20 -20 -20 -20 -20 -20 -20 -20 -20 -20 -20 -20 -20 -20 -20 -20 -20 -20 -20 -20 -20 -20

GFSNE_prec_radar_189.txt.gz
Reflectivity
-3 -20 -17 -13 -20 -20 -12 -19 -20 -20 -20 1 -20 -20 -20 -20 -20 -20 -20 -20 -20 -20 -20 -20 -20 -20 -20 -20 -17 -2 -19 -18 -10 -0 0 12 -20 -4
-20 -12 -2 -3 -19 -4 -7 -20 -20 -20 -20 -14 -20 -20 -20 -20 -20 -20 -20 -20 -20 -20 -20 -20 -20 -20 -20 -20 -20 -20 -20 -16 -8 1 8 10 10 -1
7 11 4 -5 3 -2 -19 -20 -20 -20 -20 -20 -20 -20 -20 -20 -20 -20 -20 -20 -20 -20 -20 -20 -20 -20 -20 -20 -12 -20 -20 -20 -20 -20 -20 -1 13 17
12 -10 -14 -5 -8 -20 -8 4 -20 -20 -20 -20 -20 -20 -20 -20 -20 -20 -20 -20 -20 -20 -20 -20 -20 -20 -20 -20 -20 -20 -19 -20 -20 -20 2 6 7 19
-2 5 2 4 -9 -11 -20 -20 -8 -12 -20 -20 -20 -20 -20 -20 -20 -20 -20 -20 -20 -20 -20 -20 -20 -20 -20 -20 -20 -20 -20 -20 -20 -19 -20 12 7 -9
-11 -10 -18 -17 -20 -18 2 -3 -17 -20 -20 -20 -20 -20 -20 -20 -20 -20 -20 -20 -20 -20 -20 -20 -20 -20 -20 -20 -20 -20 -20 -20 -20 -20 0 14 -6 -20
7 -6 -4 -14 2 -1 -11 -20 -20 -20 -20 -20 -20 -20 -20 -20 -20 -20 -20 -20 -20 -20 -20 -20 -20 -20 -20 -20 -20 -20 -20 -3 -4 3 14 16 -17 -8
-6 1 10 1 0 -20 -20 -20 -20 -20 -20 -20 -20 -20 -20 -20 -20 -20 -20 -20 -20 -20 -20 -20 -20 -20 -20 -20 -20 -20 -4 -1 -11 -20 -0 2 -20 5
0 6 -19 -19 -20 -20 -20 -20 -20 -20 -20 -20 -20 -20 -20 -20 -20 -20 -20 -20 -20 -20 -20 -20 -20 -20 -20 -20 -20 -11 -14 1 -20 -7 -1 -20 7 8
2 -11 -20 -20 -20 -20 -20 -20 -20 -20 -20 -20 -20 -20 -20 -20 -20 -20 -20 -20 -20 -20 -20 -20 -20 -20 -20 -20 -20 -20 -20 -2 -20 -20 1 9 3 7
-13 -20 -20 -20 -20 -20 -20 -20 -20 -20 -20 -20 -20 -20 -20 -20 -20 -20 -20 -20 -20 -20 -20 -20 -20 -20 -20 -20 -20 -20 -20 -20 -20 -20 -3 6 12 9
-20 -20 -20 -20 -20 -20 -20 -20 -20 -20 -20 -20 -20 -20 -20 -20 -20 -20 -20 -20 -20 -20 -20 -20 -20 -20 -20 -20 -20 -20 -20 -20 -20 -20 -2 0 10 -8
-20 -20 -20 -20 -20 -20 -20 -20 -20 -20 -20 -20 -20 -20 -20 -20 -20 -20 -20 -20 -20 -20 -20 2 -19 -20 -19 -20 -20 -20 -20 -20 -20 -20 -20 -20 -14 -9
-20 -20 -20 -20 -20 -20 -20 -20 -20 -20 -20 -20 -20 -20 -20 -20 -20 -20 -20 -20 -20 -20 -20 -20 -5 -8 -20 -20 -20 -20 -20 -20 -20 -20 -20 -20 -20 -20
-20 -20 -20 -20 -20 -20 -20 -20 -20 -20 -20 -20 -20 -20 -20 -20 -20 -20 -20 -20 -20 -20 -20 -20 -20 -20 -20 -20 -20 -20 -20 -20 -20 -20 -20 -20 -20 -20
-20 -20 -20 -20 -20 -20 -20 -20 -20 -20 -20 -20 -20 -20 -20 -20 -20 -20 -20 -20 -20 -20 -20 -20 -20 -20 -20 -20 -20 -20 -20 -20 -20 -20 -20 -20 -20 -20
-20 -20 -20 -20 -20 -20 -20 -20 -20 -20 -20 -20 -20 -20 -20 -20 -20 -20 -20 -20 -20 -20 -20 -20 -20 -20 -20 -20 -20 -20 -20 -20 -20 -20 -20 -20 -20 -20
-20 -20 -20 -20 -20 -20 -20 -20 -20 -20 -20 -20 -20 -20 -20 -20 -20 -20 -20 -20 -20 -20 -20 -20 -20 -20 -20 -20 -20 -20 -20 -20 -20 -20 -20 -20 -20 -20
-20 -20 -20 -20 -20 -20 -20 -20 -20 -20 -20 -20 -20 -20 -20 -20 -19 -20 -20 -20 -20 -20 -20 -20 -20 -20 -20 -20 -20 -20 -20 -20 -20 -20 -20 -20 -20 -20
-20 -20 -20 -20 -20 -20 -20 -20 -20 -20 -20 -20 -20 -20 -20 -20 -20 -20 -20 -20 -20 -20 -20 -20 -20 -20 -20 -20 -16 -20 -20 -20 -20 -20 -20 -20 -20 -20
-20 -20 -20 -20 -20 -20 -20 -20 -20 -20 -20 -20 -20 -20 -20 -20 -20 -20 -20 -11 -8 -20 -20 -20 -20 -20 -14 -11 -15 -20 -20 -20 -20 -20 -20 -17 -20 -20
-20 -20 -20 -20 -20 -20 -20 -20 -20 -20 -20 -20 -20 -20 -20 -20 -20 -20 -20 -20 -20 -20 -20 -20 -20 -20 -20 -20 -20 -20 -20 -20 -20 -20 -20 -18 -17 -6
-20 -20 -20 -20 -20 -20 -20 -20 -20 -20 -20 -20 -20 -20 -20 -20 -20 -20 -20 -20 -20 -20 -20 -20 -20 -20 -20 -20 -20 -20 -20 -20 -20 -20 -20 -20 -20 -20

GFSNE_prec_radar_192.txt.gz
Reflectivity
6 5 8 7 9 5 0 -20 -20 -20 -20 -8 7 0 -14 1 -15 -20 -20 -20 -20 -20 -20 -20 -20 -20 -20 -20 -20 -20 -20 -20 -11 -18 -20 -17 -19 -9
11 16 16 -4 -1 4 -17 -11 1 -20 -15 -2 -20 -18 3 -10 -20 -20 -20 -20 -20 -20 -20 -20 -20 -20 -20 -20 -20 -20 -20 -16 -14 -20 -20 -20 -8 -4
15 10 9 -7 -20 -18 -20 -20 -20 -20 -15 -5 -3 15 -5 -20 -20 -20 -20 -20 -20 -20 -20 -20 -20 -20 -20 -20 -20 -20 -20 -19 -17 -20 -20 -1 11 1
7 -4 -6 -8 -20 -20 -20 -20 -18 -4 -5 -5 -1 2 -20 -20 -20 -20 -20 -20 -20 -20 -20 -20 -20 -20 -20 -20 -20 -20 -20 -20 -20 -20 -20 -20 -19 11
4 -0 -20 -20 -20 -9 -4 -9 -20 -17 -6 9 9 -20 -20 -20 -20 -20 -20 -20 -20 -20 -20 -20 -20 -20 -20 -20 -20 -20 -20 -20 -20 -16 -20 -11 -19 12
-3 -13 1 -3 -18 -17 -5 -20 -20 -5 9 -10 -20 -20 -20 -20 -20 -20 -20 -20 -20 -20 -20 -20 -20 -20 -20 -20 -20 -20 -20 -18 -1 2 6 10 11 14
-7 -16 -8 -6 -5 1 -15 -5 6 13 -10 -20 -20 -20 -20 -20 -20 -20 -20 -20 -20 -20 -20 -20 -20 -20 -20 -20 -20 -20 -20 -4 5 -10 -5 -1 -5 -3
2 2 13 4 -15 -3 8 12 5 -15 -20 -20 -20 -20 -20 -20 -20 -20 -20 -20 -20 -20 -20 -20 -20 -20 -20 -20 -20 -20 -20 -6 4 -7 -20 -18 -2 9
12 14 7 -11 2 11 10 -15 -20 -20 -20 -20 -20 -20 -20 -20 -20 -20 -20 -20 -20 -20 -20 -20 -20 -20 -20 -20 -20 -20 -20 -2 2 -1 -10 -3 9 10
9 -0 5 8 8 -5 -13 -20 -20 -20 -20 -20 -20 -20 -20 -20 -20 -20 -20 -20 -20 -20 -20 -20 -20 -20 -20 -20 -20 -20 -13 -20 -20 -20 -4 -7 9 11
9 12 6 4 -18 -20 -20 -20 -20 -20 -20 -20 -20 -20 -20 -20 -20 -20 -20 -20 -20 -20 -20 -19 -20 -20 -20 -20 -20 -20 -20 -20 -20 -20 -20 -0 6 10
11 5 -2 -20 -20 -20 -20 -20 -20 -20 -20 -20 -20 -20 -20 -20 -20 -20 -20 -20 -20 -20 -20 -20 -19 -20 -20 -20 -20 -20 -20 -20 -20 -20 -20 -1 -0 -1
-13 -20 -20 -20 -20 -20 -20 -20 -20 -20 -20 -20 -20 -20 -20 -20 -20 -20 -20 -20 -20 -6 -20 4 3 -6 -14 -20 -20 -20 -20 -20 -20 -20 -20 -20 -20 -20
-17 -20 -20 -20 -20 -20 -20 -20 -20 -20 -20 -20 -20 -20 -20 -20 -20 -20 -20 -20 -20 -20 -20 -20 -17 -8 -20 -20 -20 -20 -20 -20 -20 -20 -20 -20 -20 -20
-20 -20 -20 -20 -20 -20 -20 -20 -20 -20 -20 -20 -20 -20 -20 -20 -20 -20 -20 -20 -20 -20 -20 -20 -20 -20 -20 -20 -20 -20 -20 -20 -20 -20 -20 -20 -20 -20
-20 -20 -20 -20 -20 -20 -20 -20 -20 -20 -20 -20 -20 -20 -20 -20 -20 -20 -20 -20 -20 -20 -20 -20 -20 -20 -20 -20 -20 -20 -20 -20 -20 -20 -20 -20 -20 -20
-20 -20 -20 -20 -20 -20 -20 -20 -20 -20 -20 -20 -20 -20 -20 -20 -20 -20 -20 -20 -20 -20 -20 -20 -20 -20 -20 -20 -20 -20 -20 -20 -20 -20 -20 -20 -20 -20
-20 -20 -20 -20 -20 -20 -20 -20 -20 -20 -20 -20 -20 -20 -20 -20 -20 -20 -20 -20 -20 -20 -20 -20 -20 -20 -20 -20 -20 -20 -20 -20 -20 -20 -20 -20 -20 -20
-20 -20 -20 -20 -20 -20 -20 -20 -20 -20 -20 -20 -20 -20 -20 -20 -20 -20 -20 -20 -20 -20 -20 -20 -20 -20 -20 -20 -20 -20 -20 -20 -20 -20 -20 -20 -20 -20
-20 -20 -20 -20 -20 -20 -20 -20 -20 -20 -20 -20 -20 -20 -20 -20 -20 -20 -20 -20 -20 -20 -20 -20 -20 -20 -20 -20 -17 -20 -20 -20 -20 -20 -20 -20 -20 -20
-20 -20 -20 -20 -20 -20 -20 -20 -20 -20 -20 -20 -20 -20 -20 -20 -20 -20 -20 -20 -10 -20 -20 -20 -20 -20 -20 -15 -17 -20 -20 -20 -20 -20 -20 -7 -17 -20
-20 -20 -20 -20 -20 -20 -20 -20 -20 -20 -20 -20 -20 -20 -20 -20 -20 -20 -20 -20 -20 -20 -20 -20 -20 -20 -20 -20 -20 -20 -20 -20 -20 -20 -20 -17 -10 4
-20 -20 -20 -20 -20 -20 -20 -20 -20 -20 -20 -20 -20 -20 -20 -20 -20 -20 -20 -20 -20 -20 -20 -20 -20 -20 -20 -20 -20 -20 -20 -20 -20 -20 -20 -20 -20 -20

GFSNE_prec_radar_198.txt.gz
Reflectivity
6 -8 -20 -20 -20 -20 -16 -1 -11 -17 -20 -20 -20 -20 -20 -20 -20 -20 -8 -5 -8 -7 -15 -20 -20 -17 -19 -20 -20 -20 -20 -20 -20 -20 -20 -20 -10 -19
15 -13 -12 -12 -20 -20 -20 -14 -14 -1 -20 -20 -20 -7 -10 -20 -20 -20 -20 -20 -0 -16 -20 -20 -16 -17 -20 -20 -20 -20 -20 -20 -20 -20 -12 -0 -0 -20
-6 -14 -5 -5 -20 -20 -20 -10 11 1 -4 -20 -20 -20 -20 -20 -20 -20 -20 -20 -20 -20 -19 1 -20 -20 -20 -20 -20 -20 -20 -20 -20 -20 -20 -20 -14 -19
27 25 -7 8 -20 -20 -20 10 7 4 -17 -20 -20 -20 -20 -20 -20 -20 -20 -20 -20 -1 9 -19 -20 -20 -20 -20 -20 -20 -20 -20 -20 -20 -20 -8 -11 -19
-10 -1 5 15 -19 -15 -20 -18 -16 0 -20 -20 -20 -20 -20 -20 -20 -19 0 5 3 2 -11 -20 -20 -20 -20 -20 -20 -20 -20 -20 -20 -20 -7 -20 9 -20
19 6 -13 6 8 -15 -20 -14 -3 4 -20 -20 -20 -20 -20 -20 -14 1 6 -3 -18 -20 -20 -20 -20 -20 -20 -20 -20 -20 -20 -20 -20 -20 -11 -2 -18 -0
0 12 -11 -18 3 5 -14 -8 -20 -13 -18 -20 -20 -20 -20 -20 -3 -15 -9 -20 -20 -20 -20 -20 -20 -20 -20 -20 -20 -20 -20 -20 -20 -11 9 11 17 2
-20 10 13 9 -20 -20 -20 -20 -20 -11 1 -9 -19 -0 -20 -19 -9 -20 -20 -20 -20 -20 -20 -20 -20 -20 -20 -20 -20 -20 -20 -16 6 -20 -20 -20 -20 -20
-20 -3 3 -2 -2 -1 -9 -20 -20 -20 -20 -9 -1 4 4 6 -15 -20 -20 -20 -20 -20 -20 -20 -20 -20 -20 -20 -20 -20 -20 10 -20 -20 -20 -12 -20 -7
-20 -20 -13 -1 -18 -20 -20 -20 -20 -9 3 4 0 -10 -16 -20 -20 -20 -20 -20 -20 -20 -20 -20 -20 -20 -20 -20 -20 -20 -20 -4 -2 -20 -20 -20 -12 -1
-12 -1 11 10 9 4 -7 -5 5 4 1 1 -13 -20 -10 -18 -20 -20 -20 -20 -20 -20 -20 -20 -20 -20 -20 -20 -20 -20 -20 -20 -20 -20 -20 -20 -3 1
-3 -6 4 5 -5 10 7 1 -2 -0 -2 -8 -8 -20 -20 -20 -20 -20 -20 -20 -20 -20 -20 -20 -20 -19 -7 -20 -20 -20 -20 -20 -20 -18 -20 -20 -20 -20
-2 7 16 17 13 7 6 6 1 -3 -2 -6 -19 -20 -20 -20 -20 -20 -20 -20 -20 -15 -20 -20 -6 -4 1 3 -20 -20 -20 -20 -20 -20 -20 -20 -20 -20
7 14 11 10 11 5 -0 -5 -5 -1 -3 -18 -20 -20 -20 -20 -20 -20 -20 -20 -20 -15 -20 -17 7 2 8 5 -1 -20 -20 -20 -20 -20 -20 -20 -20 -20
6 12 9 7 7 8 8 7 3 -5 -20 -20 -20 -20 -20 -20 -20 -20 -20 -20 -20 -20 -20 -20 1 -0 1 3 -5 1 -7 -20 -20 -20 -20 -20 -20 -20
10 9 9 9 8 -1 -16 -20 -20 -20 -20 -20 -20 -20 -20 -20 -20 -20 -20 -20 -4 -20 -20 -20 -20 -3 2 -0 6 -14 -20 1 -20 -20 -17 -20 -20 -20
5 7 4 -6 -17 -20 -20 -20 -20 -20 -20 -20 -20 -20 -20 -20 -20 -20 -6 -2 -2 -17 -20 -20 -20 -10 -3 1 -20 -20 -20 -20 -20 -8 2 -1 -20 -20
-3 -15 -20 -20 -20 -20 -20 -20 -20 -20 -20 -20 -20 -20 -11 -9 -20 -15 -5 -1 -2 -20 -20 -20 -6 0 -20 -20 -17 -3 0 -14 -20 -12 -20 4 -6 -20
-20 -20 -20 -20 -20 -20 -20 -20 -20 -20 -20 -20 -20 -20 -20 -20 -5 -5 -20 -20 -20 -20 -6 -1 -1 -0 -20 -20 -20 -20 -5 -2 -20 -3 -8 2 6 -6
-20 -20 -20 -20 -20 -20 -20 -20 -20 -20 -20 -20 -20 -20 -18 -7 -4 -20 -20 -20 -9 -5 -1 3 -2 2 5 -19 -13 -20 -20 -20 -2 -2 -2 -1 -5 -20
-20 -20 -20 -20 -20 -20 -20 -20 -20 -20 -20 -20 -20 -20 -15 -15 -13 -20 -6 -4 1 -0 -8 -20 -20 -20 -7 3 -20 -20 -20 -20 -20 -3 0 6 5 2
-20 -20 -20 -20 -20 -20 -20 -20 -20 -20 -20 -20 -20 -20 -20 -20 -18 -20 -10 -7 -19 -12 -3 -2 -7 0 -1 4 -20 -20 -20 -20 -20 -20 -20 -16 2 1
-20 -20 -20 -20 -20 -20 -20 -20 -20 -20 -20 -20 -20 -20 -7 -4 -16 -2 -3 -20 -16 -4 -6 -20 -12 1 2 -0 1 -20 -19 -20 -13 -3 -20 -20 -20 -20

GFSNE_prec_radar_201.txt.gz
Reflectivity
4 2 30 23 24 -3 -18 -16 -3 -4 -16 -20 -12 -20 -20 -20 -17 -12 -19 -20 -20 -20 -20 -20 -20 -20 -20 -15 -4 -3 -20 -20 -20 -20 -20 -20 -20 -20
21 27 -1 24 20 22 -15 -20 -20 -20 -20 -16 -20 -20 -20 -20 -19 -20 -20 -20 -20 -20 -20 -20 -20 -20 -20 -20 -20 -20 -20 -20 -20 -20 -20 -20 -7 -16
-6 29 28 31 19 -8 13 -20 -20 -20 -20 -20 -20 -20 -20 -20 -20 -20 -20 -20 -20 -20 -20 -20 -20 -20 -20 -2 -10 -20 -20 -20 -20 -20 -20 -20 -10 -3
25 25 30 31 11 14 -6 -10 -20 -20 -20 -20 -20 -20 -20 -20 -20 -20 -20 -20 -20 -20 -20 -20 -20 -20 -9 6 -20 -20 -20 -20 -20 -20 -20 -20 -6 -3
17 21 10 11 3 11 -17 11 -20 -20 -20 -20 -20 -20 -20 -15 -8 -14 -20 -20 -20 -20 -10 2 3 -1 -20 -20 -20 -20 -20 -20 -20 -20 -20 -15 -5 -16
10 11 19 0 -13 -19 -19 15 -9 -20 -20 -20 -20 -20 -20 -20 -20 -20 -20 -20 -20 -20 -10 -9 -20 -20 -20 -20 -20 -20 -20 -20 -20 -20 -5 5 11 13
16 8 -4 -10 -20 -20 -20 -19 -6 -20 -20 -20 -20 -20 -20 -20 -20 -20 -20 -20 -20 -20 -20 -20 -20 -20 -20 -20 -20 -20 -20 -20 -20 7 10 1 10 2
-9 6 9 -9 -18 -20 -19 1 4 10 -0 -10 -20 -20 -20 -20 -20 -12 -3 -7 -20 -20 -20 -20 -20 -20 -20 -20 -20 -20 -20 -20 -10 -10 4 -2 -20 -20
-7 -2 0 -16 -20 -20 -19 -5 7 3 -20 -20 -20 -20 -19 -14 3 7 2 -18 -20 -20 -4 -14 -20 -20 -20 -20 -20 -20 -20 -20 -19 2 10 -1 -8 -15
-20 -20 -20 -20 -20 -20 -10 -7 -2 0 5 -12 -0 -14 -15 -1 2 2 6 -2 -20 -20 -20 -20 -20 -20 -20 -20 -20 -20 -20 -20 -20 -20 -20 -15 -12 -20
-20 -19 -20 -20 -20 -4 -3 -10 -7 -20 -20 -20 -15 -9 -10 -10 -9 -2 -0 -17 -20 -20 -20 -20 -20 -20 -20 -20 -20 -20 -20 -20 -20 -20 -20 -20 -20 -20
-20 -20 -20 -20 3 -19 -19 -15 -7 -0 3 -2 -6 -5 -3 1 1 -6 -20 -20 -20 -20 -20 -20 -20 -20 -20 -20 -20 -20 -20 -20 -20 -20 -20 -20 -19 -20
-20 -20 -9 -15 -19 8 9 10 11 2 1 -0 -0 1 -3 -4 -1 -18 -20 -20 -20 -20 -20 -19 -20 -20 -8 -18 -20 -20 -20 -20 -20 -20 -20 -20 -20 1
-1 -5 -18 -6 -2 -5 -0 6 3 5 5 3 -6 -19 -9 -17 -20 -20 -20 -20 -20 -20 -20 -20 -9 -17 -10 -20 -20 -20 -20 -20 -20 -20 -20 -20 -20 -20
-12 4 7 -15 -11 2 1 -6 -6 -0 -5 -19 -15 -20 -20 -20 -20 -20 -20 -20 -20 -20 -20 -20 -20 -20 -13 -1 -10 -20 -20 -20 -20 -20 -20 -20 -20 -20
-15 -20 -20 -16 -1 1 2 -5 -10 -1 4 -12 -20 -20 -20 -20 -20 -20 -20 -20 -20 -20 -20 -20 -20 -11 -20 -3 -15 -20 -20 -20 -20 -20 -20 -20 -20 -20
-10 -20 -9 0 -3 -9 2 5 -5 -17 -19 -20 -20 -20 -20 -20 -20 -20 -20 -20 -20 -20 -20 -20 -20 -0 -1 -20 -19 -20 -20 -20 -20 -20 -20 -20 -20 -20
-10 -8 -8 4 5 0 -16 -20 -20 -20 -20 -20 -20 -20 -20 -20 -20 -20 -20 -20 -20 -15 -20 -20 -20 -3 -17 -16 -20 -20 -20 -20 -20 -20 -20 -17 -20 -20
-1 6 2 -7 -20 -20 -20 -20 -20 -20 -20 -20 -20 -20 -20 -20 -19 -20 -20 -20 -20 -20 -20 -20 -7 -19 -19 -20 -20 -20 -20 -20 -20 -20 -20 -20 -20 -20
-14 -20 -20 -20 -20 -20 -20 -20 -20 -20 -20 -20 -20 -20 -20 -20 -20 -20 -20 -20 -20 -20 -20 -20 -20 -20 -4 -16 -19 -20 -20 -20 -20 -20 -20 -20 -20 -20
-20 -20 -20 -20 -20 -20 -20 -20 -20 -20 -20 -20 -20 -20 -20 -20 -20 -20 -20 -10 -9 -20 -20 -20 -20 -0 -11 -20 -20 -20 -20 -20 -20 -20 -20 -19 -20 -20
-20 -20 -20 -20 -20 -20 -20 -20 -20 -20 -20 -20 -20 -20 -20 -20 -20 -20 -20 -20 -20 -20 -20 -20 -20 -20 -20 -5 -20 -20 -20 -20 -20 -20 -20 -17 -8 1
-20 -20 -20 -20 -20 -20 -20 -20 -20 -20 -20 -20 -20 -20 -20 -20 -20 -20 -20 -19 -19 -20 -20 -20 -20 -20 -20 -20 -20 -20 -20 -20 -20 -20 -20 -20 -20 -20

GFSNE_prec_radar_204.txt.gz
Reflectivity
-18 -19 -20 18 22 18 12 -3 -11 -20 -20 -20 -20 -20 -20 -20 -20 -20 -20 -20 -20 -20 -20 -20 -20 -20 -20 -20 -20 -20 -20 -20 -20 -20 -20 -20 -4 -20
-15 -9 28 35 37 15 23 11 -11 -20 -20 -20 -20 -20 -20 -20 -20 -20 -20 -20 -20 -20 -20 -20 -20 -20 -20 -20 -20 -20 -20 -20 -20 -20 -20 -20 -20 -20
16 26 31 17 25 19 24 21 -0 -20 -20 -20 -20 -20 -20 -20 -20 -20 -20 -14 -11 -3 -20 -20 -20 -20 -20 -20 -20 -20 -20 -20 -20 -20 -20 -20 -20 -20
25 18 18 33 25 30 16 7 -15 -20 -20 -20 -20 -20 -20 -20 -20 -14 3 -20 -20 -20 -20 -20 -20 -20 -20 -20 -20 -20 -20 -20 -20 -20 -20 -20 -20 -20
31 30 30 22 12 23 26 23 -3 -20 -20 -20 -18 -20 -20 -20 -20 -20 -20 -20 -20 -20 -20 -20 -20 -20 -20 -20 -20 -20 -20 -20 -20 -20 -20 -20 -18 -1
23 32 23 16 31 19 31 19 16 -18 -20 -20 -20 -20 -20 -20 -20 -20 -20 -20 -20 -20 -20 -20 -20 -20 -20 -20 -20 -20 -20 -20 -20 -20 -15 6 -17 -19
24 27 14 19 15 20 -6 -18 -20 -20 -20 -20 -15 -17 -20 -20 -20 -20 -20 -20 -20 -20 -20 -3 6 8 -8 -20 -20 -20 -20 -17 -20 -20 -1 -12 1 10
17 26 21 19 -20 -20 -20 -20 -20 -20 -20 -20 -20 -20 -20 -20 -20 -20 -20 -20 -20 -20 3 4 -2 1 2 -20 -20 -20 -20 -20 -20 -20 -20 1 -1 -6
23 22 8 -20 -19 -20 -20 -20 -20 -20 -20 -20 -20 -14 -16 -19 -20 -20 -20 -20 -20 -19 -3 2 -3 -5 -20 -20 -20 -20 -20 -20 -20 -20 -14 -20 -20 -20
-4 -17 1 -8 -8 -20 -20 -20 -20 -20 -20 -20 -20 -14 -10 -12 -19 -6 -16 -9 -19 -20 -17 -1 -5 -19 -20 -20 -20 -20 -20 -20 -20 -20 -20 -20 -20 -20
-20 -20 -20 -20 -20 -20 -20 -20 -20 -20 -20 -20 -17 7 -8 -8 -19 -19 -14 -6 -18 -20 -20 -18 -18 -20 -20 -20 -20 -20 -20 -20 -20 -20 -20 -20 -20 -20
-20 -20 -20 -20 -20 -20 -20 -20 -20 -20 -20 -18 -6 1 -9 -6 -1 -4 -16 -20 -20 -20 -20 -20 -20 -20 -20 -3 -18 -20 -20 -20 -20 -20 -20 -20 -20 -20
-20 -20 -20 -20 -20 -20 -20 -20 -20 -14 -3 0 -7 -9 -1 -8 -20 -20 -20 -20 -20 -20 -20 -20 -20 -20 -20 -20 -20 -20 -20 -20 -20 -20 -20 -20 -20 -17
-20 -16 -12 -17 -20 -20 -20 -20 -20 -4 -20 -20 -4 -15 -20 -17 -8 -12 -20 -20 -20 -20 -20 -20 -20 -20 -20 -20 -20 -20 -20 -20 -20 -20 -20 -20 -20 -20
8 -15 -20 -20 -20 -20 -1 -15 -20 -17 -16 -20 -20 -11 -11 -16 -18 -14 -14 -20 -20 -20 -20 -20 -20 -20 -20 -20 -20 -20 -20 -20 -20 -20 -20 -20 -20 -20
-20 -20 -19 -19 -19 -12 -7 -17 -20 -20 -20 -15 -5 -7 -10 -9 -15 -20 -20 -20 -20 -20 -20 -20 -20 -20 -20 -20 -20 -20 -20 -20 -20 -20 -20 -20 -20 -20
-20 -20 -20 -20 -20 -20 -20 -20 -20 -17 -10 -6 -3 -6 -20 -20 -20 -20 -20 -20 -20 -20 -20 -20 -20 -20 -20 -12 -8 -20 -20 -20 -20 -20 -20 -20 -20 -20
-20 -20 -20 -20 -20 -20 -20 -16 -5 0 -0 -4 -17 -20 -20 -20 -20 -20 -20 -20 -20 -20 -20 -20 -20 -20 -20 -20 -20 -20 -20 -20 -20 -20 -20 -20 -20 -20
-20 -20 -20 -20 -19 -4 -1 1 -9 -20 -20 -20 -20 -20 -20 -20 -20 -20 -20 -20 -20 -20 -20 -20 -20 -20 -20 -20 -20 -20 -20 -20 -20 -20 -20 -20 -20 -20
-20 -17 -5 0 -1 -11 -20 -20 -20 -20 -20 -20 -20 -20 -20 -20 -20 -20 -20 -20 -20 -20 -20 -20 -20 -20 -20 -20 -10 -20 -20 -20 -20 -20 -20 -20 -20 -20
4 -8 -17 -20 -20 -20 -20 -20 -20 -20 -20 -20 -20 -20 -20 -20 -20 -20 -20 -13 -5 -20 -20 -20 -20 2 -12 -20 -20 -20 -20 -20 -20 -20 -20 -20 -20 -20
-20 -20 -20 -20 -20 -20 -20 -20 -20 -20 -20 -20 -20 -20 -20 -20 -20 -20 -20 -20 -20 -20 -20 -20 -20 -20 -20 -20 -20 -20 -20 -20 -20 -20 -20 -6 -20 -10
-20 -20 -20 -20 -20 -20 -20 -20 -20 -20 -20 -20 -20 -20 -20 -20 -20 -20 -20 -20 -20 -20 -20 -20 -20 -20 -20 -20 -20 -20 -20 -20 -20 -20 -20 -20 -20 -20

GFSNE_prec_radar_207.txt.gz
Reflectivity
15 -20 11 24 14 19 7 24 31 24 10 -4 -20 -20 -20 -20 -20 -20 -20 -15 1 7 7 6 -20 -16 -10 -20 -20 -20 -20 -20 -20 -20 -20 -20 -20 -20
9 -19 6 12 29 1 -20 -12 12 2 11 -20 -20 -20 -20 -20 -20 -20 -20 -20 -20 -9 -6 -17 -20 -20 -20 -20 -20 -20 -20 -20 -20 -20 -20 -20 -20 -20
8 7 10 -15 7 -18 30 31 3 8 2 -20 -20 -20 -20 -20 -20 -20 -20 -20 -20 -6 -14 -20 -20 -20 -20 -20 -20 -20 -20 -20 -20 -20 -20 -20 -20 -20
21 -4 -3 23 -6 17 29 32 15 27 -6 -20 -20 -20 -20 -20 -20 -20 -20 -20 -20 -20 -20 -20 -20 -20 -20 -20 -20 -20 -20 -20 -20 -20 -20 -20 -20 -20
8 25 33 34 12 30 36 32 25 2 -11 -20 -20 -20 -20 -20 -20 -20 -20 -20 -20 -20 -20 -20 -20 -20 -20 -20 -20 -20 -20 -20 -20 -20 -20 -20 -9 10
24 24 24 30 26 32 16 18 21 -11 -9 -10 -20 -20 -20 -20 -20 -20 -20 -20 -20 -20 -20 -20 -20 -20 -20 -20 -20 -20 -20 -20 -20 -17 -20 -11 -17 -13
28 31 17 27 22 29 24 7 19 11 11 -16 -20 -20 -20 -20 -20 -20 -20 -20 -20 -20 -20 -20 -20 -20 -20 -20 -20 -20 -20 -20 -20 -20 -20 -20 -10 3
9 19 21 38 34 18 15 12 -20 -20 -20 -20 -20 -20 -20 -20 -20 -20 -20 -20 -20 -20 -20 -20 -20 -20 -20 -20 -20 -20 -20 -20 -20 -20 -20 -20 -20 -20
25 -16 5 23 18 -7 -20 -20 -20 -20 -20 -20 -20 -20 -20 -20 -20 -20 -20 -20 -20 -20 -20 -19 -20 -20 -20 -20 -20 -20 -20 -20 -20 -20 -20 -20 -9 -9
-3 11 13 14 -8 -20 -20 -20 -20 -20 -20 -20 -20 -20 -20 -20 -20 -20 -20 -20 -11 1 -12 -2 -7 -12 -14 -13 -20 -20 -20 -20 -20 -20 -20 -20 -20 -20
-12 -18 -17 -4 8 -17 -19 -19 -20 -20 -20 -20 -20 -20 -20 -15 -4 2 5 1 -2 -18 -20 -20 -20 -20 -10 -3 -13 -20 -20 -20 -20 -20 -20 -20 -20 -20
-20 -20 -20 -20 -20 -20 -20 -20 -20 -20 -20 -20 -20 -20 -20 -20 -20 -16 -19 -20 -20 -20 -20 -20 -20 -20 -20 -1 2 -3 -12 -20 -20 -20 -20 -20 -20 -20
-20 -20 -20 -20 -20 -20 -20 -20 -20 -20 -20 -20 -20 -20 -16 -15 -20 -20 -20 -20 -20 -20 -20 -20 -19 -20 -20 -20 6 -1 -20 -20 -20 -20 -20 -20 -20 -20
-20 -20 -20 -20 -20 -20 -20 -20 -20 -20 -20 -20 -11 -19 -20 -19 -20 -20 -20 -20 -20 -20 -20 -20 -20 -20 -20 -20 -20 -20 -20 -20 -20 -20 -20 -20 -20 -20
-20 -20 -20 -20 -20 -20 -20 -20 -20 -16 -12 -15 -14 -8 -20 -20 -20 -20 -20 -20 -20 -20 -20 -20 -20 -20 -20 -20 -20 -20 -20 -20 -20 -20 -20 -20 -20 -20
-20 -20 -20 -20 -20 -20 -20 -20 -17 -20 -20 -20 -20 -20 -20 -20 -20 -20 -20 -16 -20 -20 -20 -20 -20 -20 -20 -20 -20 -20 -20 -20 -20 -20 -20 -20 -20 -20
-20 -20 -20 -20 -20 -20 -20 -20 -20 -20 -20 -20 -20 -20 -20 -20 -20 -20 -20 -20 -20 -20 -20 -20 -20 -20 -20 -20 -20 -20 -20 -20 -20 -20 -20 -20 -20 -20
-20 -19 -11 -20 -20 -20 -20 -20 -20 -20 -20 -19 -11 -17 -20 -20 -20 -20 -20 -20 -20 -20 -20 -20 -20 -20 -20 -20 -20 -20 -20 -20 -20 -20 -20 -20 -20 -20
-20 -20 -20 -20 -20 -20 -20 -20 -20 -8 -3 -19 -20 -20 -20 -20 -20 -20 -20 -20 -20 -20 -20 -20 -20 -20 -20 -20 -20 -20 -20 -20 -20 -20 -20 -20 -20 -20
-20 -20 -20 -20 -20 -18 -12 -11 -13 -20 -20 -20 -20 -20 -20 -20 -20 -20 -20 -20 -20 -20 -20 -20 -20 -20 -20 -20 -17 -20 -20 -20 -20 -20 -20 -20 -20 -20
-20 -20 -19 -17 -19 -20 -20 -20 -20 -20 -20 -20 -20 -20 -20 -20 -20 -20 -20 -12 -9 -20 -20 -20 -20 -20 -20 -20 -20 -20 -20 -20 -20 -20 -20 -18 -20 -20
-20 -20 -20 -20 -20 -20 -20 -20 -20 -20 -20 -20 -20 -20 -20 -20 -20 -20 -20 -20 -20 -20 -20 -20 -20 -20 -20 -20 -20 -20 -20 -20 -20 -20 -20 -3 -19 -5
-20 -20 -20 -20 -20 -20 -20 -20 -20 -20 -20 -20 -20 -20 -20 -20 -20 -20 -20 -20 -20 -20 -20 -20 -20 -20 -20 -20 -20 -20 -20 -20 -20 -20 -20 -20 -20 -20

GFSNE_prec_radar_210.txt.gz
Reflectivity
18 -20 -18 19 24 13 17 22 33 17 21 29 20 22 17 -1 -4 -18 -20 -20 -20 4 8 3 -1 -20 -19 -19 -19 -5 8 8 6 -20 -20 -20 -20 -20
24 -7 -20 -12 20 -20 31 3 21 21 30 27 29 22 15 -20 -20 -20 -19 -16 -20 -20 -20 -20 -20 -20 -13 -3 -1 -8 -20 -20 -20 -20 -20 -20 -20 -20
23 12 -12 -17 14 -1 27 17 22 11 29 2 9 -11 -20 -20 -20 -20 -20 -20 -17 -18 -20 -20 -20 -20 -20 -20 -20 -20 -10 -4 -20 -20 -20 -20 -20 -20
25 -11 -12 -20 -5 -15 13 9 -12 31 7 27 -20 -20 -20 -20 -20 -20 -20 -20 -20 -20 -20 -20 -20 -20 -20 -20 -20 -20 -20 -20 -20 -20 -20 -20 -20 -20
2 -20 -6 -13 -3 11 8 17 15 31 32 34 24 22 -13 -20 -20 -20 -20 -20 -20 -20 -20 -20 -20 -20 -20 -20 -20 -20 -20 -20 -20 -20 -20 -20 -20 -20
-19 -2 -7 28 25 34 26 29 24 33 33 31 28 17 -15 -20 -20 -20 -20 -20 -20 -20 -20 -20 -20 -20 -20 -20 -20 -20 -20 -20 -20 -20 -20 -20 -20 -20
25 7 31 18 36 39 31 19 25 28 30 14 -1 12 -14 -20 -20 -20 -20 -20 -20 -20 -20 -20 -20 -20 -20 -20 -20 -20 -20 -20 -20 -20 -20 -20 -20 -20
34 35 19 32 17 32 22 23 19 17 17 13 -9 -20 -20 -20 -20 -20 -20 -20 -20 -20 -20 -20 -20 -20 -20 -20 -20 -20 -20 -20 -20 -20 -20 -20 -20 -20
33 24 29 18 19 27 32 27 16 2 -18 -20 -20 -20 -20 -20 -20 -20 -20 -20 -20 -20 -20 -20 -20 -20 -20 -20 -20 -20 -20 -20 -20 -20 -20 -20 -20 -20
30 1 16 18 7 22 -10 -17 -20 -20 -20 -20 -20 -20 -20 -20 -20 -20 -20 -20 -20 -20 -20 -20 -20 -19 -20 -20 -20 -20 -20 -20 -20 -20 -20 -20 -20 -20
-19 13 -9 -15 -18 -20 -20 -20 -20 -20 -20 -20 -20 -20 -20 -20 -20 -20 -20 -20 -20 -20 -20 -20 -20 -20 -9 -19 -20 -20 -20 -20 -20 -20 -20 -20 -20 -20
-18 -13 -8 -12 -20 -20 -20 -20 -20 -20 -20 -20 -20 -20 -20 -20 -20 -20 -20 -20 -20 -20 -20 -20 -20 -20 -20 -18 -9 -3 -9 -20 -20 -20 -20 -20 -20 -20
-20 -20 -20 -20 -20 -20 -20 -20 -20 -20 -20 -20 -20 -20 -20 -20 -20 -20 -20 -20 -20 -20 -20 -20 -20 -20 -20 -20 -12 11 8 -1 -12 -20 -20 -20 -20 -20
-20 -20 -20 -20 -20 -20 -20 -20 -20 -20 -20 -20 -20 -20 -20 -20 -20 -20 -20 -20 -20 -20 -20 -20 -20 -20 -20 -20 -20 3 9 1 -18 -20 -20 -20 -20 -20
-20 -20 -20 -20 -20 -20 -20 -20 -20 -20 -20 -20 -20 -20 -20 -20 -20 -20 -20 -20 -20 -20 -20 -20 -20 -20 -20 -20 -20 -16 -18 -19 -20 -20 -20 -20 -20 -20
-20 -20 -20 -20 -20 -20 -20 -20 -20 -20 -20 -20 -20 -20 -20 -20 -20 -20 -20 -20 -20 -20 -20 -20 -20 -20 -20 -20 -20 -20 -20 -20 -20 -20 -20 -20 -20 -20
-20 -20 -20 -20 -20 -20 -20 -20 -20 -20 -20 -20 -20 -20 -20 -20 -20 -20 -20 -20 -20 -20 -20 -20 -20 -20 -20 -20 -20 -20 -20 -20 -20 -20 -20 -20 -20 -20
-20 -20 -20 -20 -20 -20 -20 -20 -20 -20 -20 -20 -20 -20 -20 -20 -20 -20 -20 -20 -20 -20 -20 -20 -20 -20 -20 -20 -20 -20 -20 -20 -20 -20 -20 -20 -20 -20
-20 -20 -20 -20 -20 -20 -20 -20 -20 -20 -20 -20 -20 -20 -20 -20 -20 -20 -20 -20 -20 -20 -20 -20 -20 -20 -20 -20 -20 -20 -20 -20 -20 -20 -20 -20 -20 -20
-20 -20 -20 -20 -20 -20 -20 -20 -20 -20 -20 -20 -20 -20 -20 -20 -20 -20 -20 -20 -20 -20 -20 -20 -20 -20 -20 -20 -18 -20 -20 -20 -20 -20 -20 -20 -20 -20
-20 -20 -20 -20 -20 -20 -20 -20 -20 -20 -20 -20 -20 -20 -20 -20 -20 -20 -20 -20 -10 -11 -20 -20 -20 -20 -20 -20 -20 -20 -20 -20 -20 -20 -20 -20 -20 -20
-20 -20 -20 -20 -20 -20 -20 -20 -20 -20 -20 -20 -20 -20 -20 -20 -20 -20 -20 -19 -20 -20 -20 -20 -20 -20 -20 -20 -20 -20 -20 -20 -20 -20 -20 -20 -19 4
-20 -20 -20 -20 -20 -20 -20 -20 -20 -20 -20 -20 -20 -20 -18 -20 -20 -20 -20 -20 -18 -20 -20 -20 -20 -20 -20 -20 -20 -20 -20 -20 -20 -20 -20 -20 -20 -20

GFSNE_prec_radar_213.txt.gz
Reflectivity
-20 8 -9 -20 -20 -18 -20 21 27 -11 29 13 0 26 2 25 27 27 29 24 14 -8 -20 -0 -20 -18 -12 -15 -20 -20 -3 3 -15 -20 -20 -20 -20 -20
5 -13 -12 -8 -20 -20 -11 -4 25 26 3 21 31 30 28 37 31 25 29 16 -18 -18 -20 -20 -20 -20 -20 -20 -20 -17 -6 -11 -10 -10 -8 -17 -16 -18
6 21 7 8 27 -20 -20 30 36 -17 4 6 18 33 23 28 28 17 -19 -20 -20 -20 -20 -20 -20 -7 -20 -20 -20 -20 -20 -20 -20 -20 -20 -20 -18 -18
6 -7 10 8 8 -20 -20 -20 -20 -20 30 15 28 35 25 25 19 -4 -1 -20 -20 -20 -20 -20 -20 -20 -20 -20 -20 -20 -20 -20 -20 -20 -20 -20 -20 -20
18 15 7 31 25 -13 -20 -20 -16 21 22 17 18 15 -4 17 -4 -20 -20 -20 -20 -20 -20 -20 -20 -20 -20 -20 -20 -20 -20 -20 -20 -20 -20 -20 -20 -20
-4 19 17 -16 -20 -20 -20 -6 -11 31 -2 17 11 16 30 29 12 -20 -20 -20 -20 -20 -20 -20 -20 -20 -20 -20 -20 -20 -20 -20 -20 -20 -20 -20 -20 -20
8 36 6 17 27 8 25 8 34 6 5 28 33 24 31 28 -10 -20 -20 -20 -20 -20 -20 -20 -20 -20 -20 -20 -20 -20 -20 -20 -20 -20 -20 -20 -20 -20
0 28 37 22 34 17 26 33 32 34 29 28 34 28 13 -1 -20 -20 -20 -20 -20 -20 -20 -20 -20 -20 -20 -20 -20 -20 -20 -20 -20 -20 -20 -20 -20 -20
-6 32 27 25 29 11 25 35 29 21 17 23 1 -18 -20 -20 -20 -20 -20 -20 -20 -20 -20 -20 -20 -20 -20 -20 -20 -20 -20 -20 -20 -20 -20 -20 -20 -20
-4 24 22 14 28 19 30 26 24 17 1 -16 -20 -20 -20 -20 -20 -20 -20 -20 -20 -20 -20 -20 -20 -20 -20 -20 -20 -20 -20 -20 -20 -20 -20 -20 -20 -20
0 14 19 -2 21 11 2 8 -16 -9 -18 -20 -20 -20 -20 -20 -20 -20 -20 -20 -20 -20 -20 -20 -20 -20 -20 -20 -20 -20 -20 -20 -20 -20 -20 -20 -20 -20
-18 -4 6 -14 -20 -20 -20 -20 -20 -20 -20 -20 -20 -20 -20 -20 -20 -20 -20 -20 -20 -20 -20 -20 -20 -20 -20 -20 -20 -20 -20 -20 -20 -20 -20 -20 -20 -20
-14 -10 -20 -20 -20 -19 -20 -20 -20 -20 -20 -20 -20 -20 -20 -20 -20 -20 -20 -20 -20 -20 -20 -20 -20 -20 -20 -20 -20 -12 -4 -9 -17 -20 -20 -20 -20 -20
-20 -20 -20 -20 -20 -20 -20 -20 -20 -20 -20 -20 -20 -20 -20 -20 -20 -20 -20 -20 -20 -20 -20 -20 -20 -20 -20 -20 -20 -7 -4 -14 -18 -17 -20 -20 -20 -20
-20 -20 -20 -20 -20 -20 -20 -20 -20 -20 -20 -20 -20 -20 -20 -20 -20 -20 -20 -20 -20 -20 -20 -20 -20 -20 -20 -20 -20 -20 -20 -20 -19 -20 -20 -20 -20 -20
-20 -20 -20 -20 -20 -20 -20 -20 -20 -20 -20 -20 -20 -20 -20 -20 -20 -20 -20 -20 -20 -20 -20 -20 -20 -20 -20 -20 -20 -20 -20 -20 -20 -20 -20 -20 -20 -20
-20 -20 -20 -20 -20 -20 -20 -20 -20 -20 -20 -20 -20 -20 -20 -20 -20 -20 -20 -20 -20 -20 -20 -20 -20 -20 -20 -20 -20 -20 -20 -20 -20 -20 -20 -20 -20 -20
-20 -20 -20 -20 -20 -20 -20 -20 -20 -20 -20 -20 -20 -20 -20 -20 -20 -20 -20 -20 -20 -20 -20 -20 -20 -20 -20 -20 -20 -20 -20 -20 -20 -20 -20 -20 -20 -20
-20 -20 -20 -20 -20 -20 -20 -20 -20 -20 -20 -20 -20 -20 -20 -20 -20 -20 -20 -20 -20 -20 -20 -20 -20 -20 -20 -20 -20 -20 -20 -20 -20 -20 -20 -20 -20 -20
-20 -20 -20 -20 -20 -20 -20 -20 -20 -20 -20 -20 -20 -20 -20 -20 -20 -20 -20 -20 -20 -20 -20 -20 -20 -20 -20 -20 -18 -20 -20 -20 -20 -20 -20 -20 -20 -20
-20 -20 -20 -20 -20 -20 -20 -20 -20 -20 -20 -20 -20 -20 -20 -20 -20 -20 -20 -20 -18 1 -18 -20 -20 -20 -15 -20 -20 -20 -20 -20 -20 -20 -20 -20 -20 -20
-20 -20 -20 -20 -20 -20 -20 -20 -20 -20 -20 -20 -20 -20 -20 -20 -20 -20 -20 -7 -20 -20 -20 -20 -20 -20 -20 -20 -20 -20 -20 -20 -20 -20 -20 -20 -19 0
-20 -20 -20 -20 -20 -20 -20 -20 -20 -20 -20 -19 -20 -20 -20 -12 -11 -9 -20 -20 -20 -20 -20 -20 -20 -20 -20 -20 -20 -20 -20 -20 -20 -20 -20 -20 -20 -20

GFSNE_prec_radar_219.txt.gz
Reflectivity
-18 -20 -17 11 -13 31 -9 7 -15 17 -20 -20 -20 -20 -20 -20 -17 -19 20 30 28 20 23 21 8 15 11 15 6 -10 -20 -20 -20 -20 -20 -9 -19 -20
12 -3 5 -17 5 -6 24 3 16 6 -11 -20 -20 -20 -20 -20 -7 -20 18 24 27 32 30 32 23 15 19 23 -20 -20 -20 -20 -20 -20 -20 -13 -18 -17
-20 2 -0 12 -19 -7 14 -1 16 16 6 -20 -20 -20 -20 -20 -20 -20 8 -9 13 27 19 20 17 22 18 -20 -20 -20 -20 -20 -20 -20 -20 -20 -20 -20
-20 -20 -20 2 -18 7 2 -0 4 18 18 -19 -20 -20 -20 -20 -13 16 4 -7 19 27 24 21 30 22 1 -20 -20 -20 -20 -20 -20 -20 -20 -20 -20 -20
-5 -1 -7 17 14 -9 -1 -12 12 1 17 24 -3 -20 -20 -20 -19 -9 2 11 17 26 17 24 24 9 4 -9 -20 -20 -20 -20 -20 -20 -20 -20 -20 -20
13 -2 15 22 15 -5 17 23 20 25 21 20 4 -4 -20 -14 4 2 16 4 24 16 17 12 22 9 -20 -20 -20 -20 -20 -20 -20 -20 -20 -20 -20 -20
8 -17 -5 -9 19 13 10 19 40 13 9 28 33 -4 -11 -6 6 -7 2 20 22 27 6 9 -2 -14 -20 -20 -20 -20 -20 -20 -20 -20 -20 -20 -20 -20
23 20 23 25 21 21 21 27 29 6 17 17 20 18 0 22 23 8 15 15 15 5 13 10 -15 -20 -20 -20 -20 -20 -20 -20 -20 -20 -20 -20 -20 -20
5 24 14 8 -2 18 18 26 16 10 10 9 26 33 7 0 16 32 26 26 23 15 12 6 -20 -20 -20 -20 -20 -20 -20 -20 -20 -20 -20 -20 -20 -20
19 -20 -2 -8 -3 6 14 23 26 21 4 10 20 25 26 30 26 17 11 -2 -9 -20 -20 -20 -20 -20 -20 -20 -20 -20 -20 -20 -20 -20 -20 -20 -20 -20
-19 -20 -12 -7 -13 13 12 20 31 30 30 31 32 31 27 10 -15 -18 -20 -20 -20 -20 -20 -20 -20 -20 -20 -20 -20 -20 -20 -20 -20 -20 -20 -20 -20 -20
-20 -20 -1 -20 -20 -20 -20 7 20 5 -14 -20 -20 -20 -20 -20 -18 -20 -20 -20 -20 -20 -20 -20 -20 -20 -20 -20 -20 -20 -20 -20 -20 -20 -20 -20 -20 -20
2 -19 -20 -20 -20 -20 -20 -20 -20 -20 -20 -20 -20 -20 -20 -20 -20 -20 -20 -20 -20 -20 -20 -20 -20 -20 -20 -20 -20 -20 -20 -20 -20 -20 -20 -20 -20 -20
-20 -20 -20 -20 -20 -20 -20 -20 -20 -20 -20 -20 -20 -20 -20 -20 -20 -20 -20 -20 -20 -20 -20 -20 -20 -20 -20 -20 -20 -10 -17 -20 -20 -20 -20 -20 -20 -20
-20 -20 -20 -20 -20 -20 -20 -20 -20 -20 -20 -20 -20 -20 -20 -20 -20 -20 -20 -20 -20 -20 -20 -20 -20 -20 -20 -20 -20 -20 -20 -20 -20 -20 -20 -20 -20 -20
-20 -20 -20 -20 -20 -20 -20 -20 -20 -20 -20 -20 -20 -20 -20 -20 -20 -20 -20 -20 -20 -20 -20 -20 -20 -20 -20 -20 -20 -20 -20 -20 -20 -20 -20 -20 -20 -20
-20 -20 -20 -20 -20 -20 -20 -20 -20 -20 -20 -20 -20 -20 -20 -20 -20 -20 -20 -20 -20 -20 -20 -20 -20 -20 -20 -20 -20 -20 -20 -20 -20 -20 -20 -20 -20 -20
-20 -20 -20 -20 -20 -20 -20 -20 -20 -20 -20 -20 -20 -20 -20 -20 -20 -20 -20 -20 -20 -20 -20 -20 -20 -20 -20 -20 -20 -20 -20 -20 -20 -20 -20 -20 -20 -20
-20 -20 -20 -20 -20 -20 -20 -20 -20 -20 -20 -20 -20 -20 -20 -20 -20 -20 -20 -20 -20 -20 -20 -20 -20 -20 -20 -20 -20 -20 -20 -20 -20 -20 -20 -20 -20 -20
-20 -20 -20 -20 -20 -20 -20 -20 -20 -20 -20 -20 -20 -20 -20 -20 -20 -20 -20 -20 -20 -20 -20 -20 -20 -19 -11 -20 -18 -20 -20 -20 -20 -20 -20 -20 -20 -20
-20 -20 -20 -20 -20 -20 -20 -20 -20 -20 -20 -20 -20 -20 -20 -20 -20 -20 -19 -18 -10 -15 -12 -20 -20 -11 -13 -17 -20 -20 -20 -20 -20 -20 -20 -17 -20 -20
-20 -20 -20 -20 -20 -20 -20 -20 -20 -20 -20 -20 -20 -20 -20 -20 -20 -20 -20 -20 -20 -20 -0 -20 -20 -20 -20 -20 -20 -20 -20 -20 -20 -20 -20 -20 -19 -6
-20 -20 -20 -20 -20 -20 -20 -20 -20 -20 -20 -20 -20 -2 -20 -19 4 4 5 -20 -20 -20 -20 -20 -20 -20 -20 -20 -20 -20 -20 -20 -20 -20 -20 -20 -20 -20

GFSNE_prec_radar_222.txt.gz
Reflectivity
8 13 4 -0 -5 -4 27 5 13 24 -6 -18 -20 -20 -13 -20 -19 -17 -20 6 28 23 34 30 22 7 14 13 19 12 7 -20 -20 -20 -20 -20 -20 -20
15 12 15 17 11 -4 -12 19 8 30 22 13 -20 -20 -10 -20 -2 -17 -15 -7 19 23 23 16 28 21 22 26 18 -16 7 -20 -20 -20 -20 -20 -20 -20
-10 4 -2 15 17 -20 -19 3 22 18 37 11 -20 -20 -20 -20 -14 -20 -20 -20 -12 13 21 24 19 25 29 28 26 16 -6 -20 -20 -20 -20 -20 -20 -20
-10 2 -10 -0 1 16 20 -20 -19 -17 17 11 -18 -20 -20 -20 -20 -20 -20 -20 -20 18 19 18 23 19 20 18 21 6 -20 -20 -20 -20 -20 -20 -20 -20
-14 2 -15 17 12 13 20 1 -14 -20 -20 -9 6 -2 4 -8 -20 -20 -20 -0 16 22 16 16 18 9 13 15 10 5 4 4 -20 -20 -20 -20 -20 -20
11 -11 10 7 15 24 22 28 6 -2 -3 20 38 31 25 27 -18 -20 -16 -15 6 11 24 19 23 12 14 20 15 10 4 -19 -20 -20 -20 -20 -20 -20
3 11 12 5 21 22 29 19 8 24 33 17 34 41 19 30 -17 -3 -4 9 7 16 27 20 18 15 -12 -20 -18 11 2 -20 -20 -20 -20 -20 -20 -20
14 4 12 15 2 26 37 33 32 33 26 17 20 19 29 37 19 4 2 9 21 14 19 19 3 -9 5 -7 10 1 -20 -20 -20 -20 -20 -20 -20 -20
8 -7 1 13 8 6 1 13 13 24 13 4 24 31 27 9 21 20 14 9 9 8 20 20 11 10 11 7 -2 -8 -20 -20 -20 -20 -20 -20 -20 -20
-6 -20 -20 -20 -20 -6 11 -0 19 16 7 -3 -4 0 5 4 21 21 30 18 23 10 7 3 1 -2 -15 -20 -20 -20 -20 -20 -20 -20 -20 -20 -20 -20
-20 -20 -20 -20 -20 7 -8 -10 2 14 23 30 32 26 19 26 19 13 13 10 -4 -9 -2 -0 -4 -18 -20 -20 -20 -20 -20 -20 -20 -20 -20 -20 -20 -20
-20 -20 -20 -20 -3 5 -15 -13 -10 -20 -20 -20 -17 -14 -12 -9 -20 -7 -19 -5 -15 -20 -20 -20 -20 -20 -20 -20 -20 -20 -20 -20 -20 -20 -20 -20 -20 -20
-19 -20 -20 -20 -20 -20 -20 -20 -20 -20 -20 -13 -19 -20 -20 -20 -20 -20 -20 -20 -20 -20 -20 -20 -20 -20 -20 -20 -20 -20 -20 -20 -20 -20 -20 -20 -20 -20
-20 -20 -20 -20 -20 -20 -20 -20 -20 -20 -20 -20 -20 -20 -20 -20 -20 -20 -20 -20 -20 -20 -20 -20 -20 -20 -20 -20 -20 -20 -20 -20 -20 -20 -20 -20 -20 -20
-20 -20 -20 -20 -20 -20 -20 -20 -20 -20 -20 -20 -20 -20 -20 -20 -20 -20 -20 -20 -20 -20 -20 -20 -20 -20 -20 -20 -20 -20 -20 -20 -20 -20 -20 -20 -20 -20
-20 -20 -20 -20 -20 -20 -20 -20 -20 -20 -20 -20 -20 -20 -20 -20 -20 -20 -20 -20 -20 -20 -20 -20 -20 -20 -20 -20 -20 -20 -20 -20 -20 -20 -20 -20 -20 -20
-20 -20 -20 -20 -20 -20 -20 -20 -20 -20 -20 -20 -20 -20 -20 -20 -20 -20 -20 -20 -20 -20 -20 -20 -20 -20 -20 -20 -16 -20 -20 -20 -20 -20 -20 -20 -20 -20
-20 -20 -20 -20 -20 -20 -20 -20 -20 -20 -20 -20 -20 -20 -20 -20 -20 -20 -20 -20 -20 -20 -20 -20 -20 -16 -20 -20 -20 -20 -20 -18 -20 -20 -7 1 -20 -20
-20 -20 -20 -20 -20 -20 -20 -20 -20 -20 -20 -20 -20 -20 -20 -20 -20 -20 -20 -20 -20 -20 -20 -20 -20 -19 -16 -3 -20 -20 -20 -20 -4 -10 -20 -19 -20 -20
-20 -20 -20 -20 -20 -20 -20 -20 -20 -20 -20 -20 -20 -20 -20 -20 -20 -20 -20 -16 -8 -5 -20 -5 -14 0 4 1 2 -20 -20 -20 -20 -17 -20 -20 -20 -20
-20 -20 -20 -20 -20 -20 -20 -20 -20 -20 -20 -20 -20 -20 -20 -20 -12 -7 -12 -3 -10 -8 -9 -1 6 -11 -20 -11 -5 -20 -20 -20 -20 -15 -20 2 -20 -20
-20 -20 -20 -20 -20 -12 -19 -20 -20 -17 -20 -20 -20 -20 -20 -20 -9 -8 0 -4 -3 -19 -1 -0 -8 -2 -3 -1 -2 -20 -20 -20 -20 -20 -20 -19 -5 -20
-20 -20 -20 -20 -20 -20 -20 -20 -20 -20 -20 -20 -20 -20 -20 1 -3 -19 -7 -4 -3 -3 -17 -20 -20 -20 -20 -19 -1 -20 -20 -20 -20 -20 -20 -20 -20 -20

GFSNE_prec_radar_228.txt.gz
Reflectivity
-2 7 -5 -19 -20 -20 -19 6 13 8 -20 -20 12 10 -2 -19 -14 -19 -20 11 -11 7 -20 -20 -7 -4 23 39 38 34 38 38 28 13 8 -4 -9 -20
-17 -14 -2 -2 14 1 -20 -20 16 7 4 -20 -20 -17 -1 -2 25 -3 -13 -5 -15 5 -2 -10 -6 10 -12 9 25 22 31 44 30 20 2 8 -20 -20
-9 2 -20 -20 -1 5 -12 -6 11 16 11 -20 -20 -20 -19 7 28 24 16 -10 -6 -0 3 -0 19 -5 -17 3 22 19 30 31 34 17 15 14 -17 -18
-20 -20 -20 -4 7 -2 -20 -7 10 13 19 10 -20 -20 -20 -19 21 36 31 22 -16 14 15 -7 -2 13 11 14 8 20 22 33 30 27 14 13 14 10
-7 -13 -18 10 -17 5 -4 -14 -20 -20 1 9 12 -20 -20 -12 -12 20 28 40 18 17 14 16 14 11 15 18 22 -2 23 21 22 22 15 -2 -20 -2
-4 6 16 13 -4 8 -12 -12 -7 -13 -10 10 15 9 -7 -0 5 -5 37 33 27 26 13 12 5 13 14 -0 -3 14 21 24 12 16 7 -18 -20 -20
-19 -20 -18 4 2 10 -17 -17 -12 -18 8 3 15 17 26 31 20 6 30 20 24 31 29 9 2 6 29 24 13 14 10 11 16 6 -18 -20 -20 -20
-20 -6 8 -3 3 3 5 -4 13 -7 -8 6 15 22 29 32 33 30 32 31 33 26 34 19 6 21 16 23 32 26 24 17 17 -5 -20 -20 -20 -20
-11 1 -18 -20 -16 -20 -7 8 2 -2 5 1 6 18 21 9 24 24 29 30 33 33 31 29 23 23 18 21 20 -15 -6 8 5 -2 -20 -20 -20 -20
-20 -20 -20 -20 -20 -20 -20 -20 -15 4 8 10 11 11 4 -1 -2 -1 23 25 24 24 19 -6 -15 -15 -19 -20 -20 -20 -20 -20 -20 -20 -20 -17 -10 -11
-20 -20 -20 -20 -18 8 -20 -15 -10 -7 7 7 11 -2 -2 -17 -9 -19 -2 -4 -12 -18 -3 -18 -19 -7 0 -4 -2 4 -5 -11 -19 -20 -20 -20 -20 -20
-20 -20 -20 -20 -20 -20 -20 -20 -20 -20 -20 -20 -20 -20 -15 -20 -17 -11 -20 -20 -20 -18 -15 -13 -20 -20 -20 -20 -20 -20 -20 -20 -20 -20 -20 -20 -20 -20
-20 -20 -20 -20 -20 -20 -20 -20 -20 -20 -20 -20 -20 -20 -20 -20 -20 -20 -20 -20 -20 -20 -20 -20 -20 -20 -20 -20 -20 -20 -20 -20 -20 -20 -20 -20 -20 -20
-20 -20 -20 -20 -20 -20 -20 -20 -20 -20 -20 -20 -20 -20 -20 -20 -20 -20 -20 -20 -20 -20 -20 -20 -20 -20 -20 -20 -20 -20 -20 -20 -20 -20 -20 -20 -20 -20
-20 -20 -20 -20 -20 -20 -20 -20 -20 -20 -20 -20 -20 -20 -20 -20 -20 -20 -20 -20 -20 -20 -20 -20 -20 -20 -20 -20 -20 -20 -20 -20 -20 -20 -20 -20 -20 -20
-20 -20 -20 -20 -20 -20 -20 -20 -20 -20 -20 -20 -20 -20 -20 -20 -20 -20 -20 -20 -20 -20 -20 -20 -20 -20 -20 -20 -20 -20 -20 -20 -20 -20 -20 -20 -20 -20
-20 -20 -20 -20 -20 -20 -20 -20 -20 -20 -20 -20 -20 -20 -20 -20 -20 -20 -20 -20 -20 -20 -20 -20 -20 -20 -20 -20 -20 -20 -20 -20 -20 -20 -20 -20 -20 -20
-20 -20 -20 -20 -20 -20 -20 -20 -20 -20 -20 -20 -20 -20 -20 -20 -20 -20 -20 -20 -20 -20 -20 -19 -20 -20 -20 -20 -20 -20 -20 -20 -20 -20 -20 4 -20 -20
-20 -20 -20 -20 -20 -20 -20 -20 -20 -20 -20 -20 -20 -20 -20 -20 -16 -20 -20 -20 -20 -20 -20 -18 -15 -20 -18 -20 -20 -20 -20 -20 -20 -20 -20 -20 -20 -20
-20 -20 -20 -20 -20 -20 -20 -20 -20 -20 -20 -20 -20 -20 -20 -20 -20 -14 -20 -16 -9 -7 -20 -20 -19 -20 -20 -20 -20 -20 -20 -20 -20 -20 -20 -20 -20 -20
-20 -20 -20 -20 -20 -20 -20 -20 -20 -20 -20 -20 -20 -20 -20 -20 -14 -20 -15 -13 -14 -20 -20 -20 -20 1 -20 -20 -20 -20 -20 -20 -20 -20 -20 -20 -20 -20
-20 -20 -20 -20 -20 -20 -20 -20 -20 -20 -20 -20 -20 -20 -20 -20 -20 -20 -9 -20 -20 -20 -20 -20 -20 -20 -20 -20 -20 -20 -20 -20 -20 -20 -20 -16 -14 -9
-20 -20 -20 -20 -20 -20 -20 -20 -20 -20 -12 -20 -20 -20 -20 -20 -20 -20 -20 -20 -20 -20 -20 -20 -20 -20 -20 -20 -20 -20 -20 -20 -20 -20 -20 -20 -20 -20